This is the latest recevied weather packets stored in our database for station/object DL3NDS-WX. If no packets are shown the sender has not sent any weather packets the latest 1 day(s).
| Time | Temp. | Humidity | Pressure | Rain* | Wind** | Luminosity | Snow |
|---|---|---|---|---|---|---|---|
| 1777946776 | 13.33° C | 80% | 1011.9 hPa | 0 mm | 3.58 m/s, 311° | 0 W/m² | - |
| 1777946716 | 13.33° C | 80% | 1011.9 hPa | 0 mm | 3.58 m/s, 324° | 0 W/m² | - |
| 1777946654 | 13.33° C | 80% | 1012 hPa | 0 mm | 3.58 m/s, 321° | 0 W/m² | - |
| 1777946592 | 13.33° C | 80% | 1012 hPa | 0 mm | 3.13 m/s, 320° | 0 W/m² | - |
| 1777946531 | 13.33° C | 80% | 1011.9 hPa | 0 mm | 3.58 m/s, 313° | 0 W/m² | - |
| 1777946471 | 13.33° C | 80% | 1012 hPa | 0 mm | 2.68 m/s, 336° | 0 W/m² | - |
| 1777946420 | 13.33° C | 80% | 1012 hPa | 0 mm | 1.79 m/s, 318° | 0 W/m² | - |
| 1777946384 | 13.33° C | 80% | 1012 hPa | 0 mm | 1.79 m/s, 293° | 0 W/m² | - |
| 1777946286 | 13.33° C | 80% | 1012 hPa | 0 mm | 2.24 m/s, 318° | 0 W/m² | - |
| 1777946226 | 13.33° C | 80% | 1012 hPa | 0 mm | 1.79 m/s, 320° | 0 W/m² | - |
| 1777946164 | 13.33° C | 80% | 1012 hPa | 0 mm | 1.79 m/s, 315° | 0 W/m² | - |
| 1777946103 | 13.33° C | 80% | 1012 hPa | 0 mm | 2.68 m/s, 294° | 0 W/m² | - |
| 1777946042 | 13.33° C | 80% | 1012 hPa | 0 mm | 2.68 m/s, 322° | 0 W/m² | - |
| 1777945980 | 13.33° C | 80% | 1012 hPa | 0 mm | 2.24 m/s, 328° | 0 W/m² | - |
| 1777945918 | 13.33° C | 80% | 1011.9 hPa | 0 mm | 2.24 m/s, 312° | 0 W/m² | - |
| 1777945857 | 13.33° C | 80% | 1011.9 hPa | 0 mm | 2.68 m/s, 325° | 0 W/m² | - |
| 1777945797 | 13.33° C | 80% | 1011.8 hPa | 0 mm | 3.58 m/s, 312° | 0 W/m² | - |
| 1777945735 | 13.33° C | 80% | 1011.8 hPa | 0 mm | 3.58 m/s, 314° | 0 W/m² | - |
| 1777945670 | 13.33° C | 80% | 1011.9 hPa | 0 mm | 3.13 m/s, 312° | 0 W/m² | - |
| 1777945613 | 13.33° C | 80% | 1011.9 hPa | 0 mm | 3.58 m/s, 323° | 0 W/m² | - |
| 1777945550 | 13.33° C | 80% | 1011.8 hPa | 0 mm | 4.02 m/s, 324° | 0 W/m² | - |
| 1777945486 | 13.33° C | 80% | 1011.9 hPa | 0 mm | 3.13 m/s, 328° | 0 W/m² | - |
| 1777945429 | 13.33° C | 80% | 1011.8 hPa | 0 mm | 3.13 m/s, 310° | 0 W/m² | - |
| 1777945367 | 13.33° C | 80% | 1011.9 hPa | 0 mm | 2.68 m/s, 318° | 0 W/m² | - |
| 1777945304 | 13.33° C | 80% | 1011.8 hPa | 0 mm | 1.79 m/s, 324° | 0 W/m² | - |
* Rain latest hour (hover to see other rain measurements)
** Current wind speed in m/s (hover to see current wind gust speed)